QPF
0.10 0.10 0.08 0.08 0.08 0.07 0.05 0.04 0.04 0.04 0.04 0.04 0.03 0.02 0.02 0.03 0.03 0.02 0.03 0.02 0.02 0.03 0.03 0.04 0.05 0.06 0.07 0.09 0.10 0.10 0.09 0.08 0.08 0.08 0.07 0.07 0.07 0.06
0.08 0.08 0.07 0.06 0.07 0.07 0.07 0.06 0.05 0.05 0.05 0.04 0.04 0.02 0.02 0.01 0.02 0.02 0.02 0.02 0.02 0.03 0.03 0.03 0.04 0.05 0.05 0.07 0.08 0.08 0.10 0.12 0.13 0.11 0.10 0.09 0.08 0.08
0.06 0.06 0.05 0.05 0.05 0.05 0.05 0.06 0.05 0.05 0.07 0.06 0.04 0.03 0.02 0.03 0.03 0.03 0.02 0.02 0.03 0.03 0.03 0.03 0.03 0.04 0.04 0.05 0.07 0.07 0.07 0.08 0.09 0.10 0.10 0.10 0.09 0.08
0.04 0.03 0.03 0.03 0.04 0.04 0.06 0.09 0.07 0.06 0.06 0.06 0.05 0.03 0.02 0.02 0.03 0.03 0.02 0.02 0.03 0.02 0.02 0.03 0.03 0.03 0.04 0.05 0.06 0.07 0.07 0.07 0.06 0.06 0.06 0.05 0.04 0.04
0.03 0.02 0.02 0.02 0.02 0.03 0.05 0.08 0.07 0.04 0.03 0.04 0.03 0.03 0.02 0.01 0.03 0.03 0.03 0.03 0.02 0.01 0.02 0.02 0.03 0.03 0.03 0.04 0.04 0.04 0.06 0.07 0.06 0.05 0.05 0.04 0.03 0.02
0.04 0.02 0.02 0.03 0.03 0.03 0.03 0.04 0.04 0.04 0.03 0.03 0.03 0.04 0.03 0.02 0.03 0.03 0.03 0.03 0.02 0.01 0.02 0.02 0.02 0.02 0.02 0.03 0.03 0.03 0.02 0.04 0.05 0.04 0.04 0.03 0.03 0.03
0.07 0.03 0.03 0.03 0.03 0.03 0.02 0.03 0.04 0.05 0.05 0.04 0.04 0.05 0.05 0.04 0.03 0.04 0.03 0.03 0.03 0.02 0.02 0.02 0.02 0.02 0.02 0.02 0.02 0.02 0.02 0.01 0.02 0.02 0.03 0.03 0.03 0.03
0.10 0.07 0.04 0.03 0.03 0.02 0.01 0.01 0.02 0.03 0.04 0.05 0.04 0.04 0.05 0.06 0.05 0.04 0.04 0.04 0.04 0.03 0.03 0.03 0.03 0.03 0.03 0.03 0.03 0.03 0.03 0.02 0.01 0.01 0.02 0.02 0.02 0.03
0.07 0.08 0.05 0.03 0.02 0.01 0.01 0.01 0.01 0.01 0.01 0.03 0.04 0.03 0.04 0.06 0.06 0.05 0.05 0.06 0.06 0.05 0.06 0.06 0.06 0.06 0.05 0.04 0.03 0.02 0.02 0.01 0.01 0.01 0.01 0.02 0.02 0.03
0.03 0.04 0.04 0.02 0.02 0.02 0.02 0.02 0.02 0.01 0.01 0.01 0.02 0.03 0.02 0.03 0.04 0.04 0.05 0.07 0.07 0.08 0.08 0.07 0.06 0.05 0.04 0.03 0.03 0.02 0.01 0.01 0.01 0.01 0.01 0.02 0.02 0.02
0.02 0.02 0.02 0.02 0.02 0.02 0.02 0.02 0.02 0.01 0.00 0.00 0.00 0.01 0.01 0.01 0.01 0.02 0.03 0.04 0.05 0.04 0.03 0.02 0.03 0.03 0.03 0.03 0.03 0.03 0.02 0.02 0.02 0.02 0.02 0.02 0.02 0.02
0.01 0.01 0.01 0.02 0.02 0.01 0.01 0.02 0.03 0.02 0.01 0.01 0.01 0.01 0.00 0.00 0.00 0.01 0.02 0.03 0.04 0.05 0.03 0.02 0.02 0.02 0.03 0.02 0.02 0.03 0.03 0.03 0.03 0.03 0.02 0.03 0.03 0.02
0.01 0.01 0.02 0.01 0.01 0.01 0.01 0.02 0.02 0.02 0.02 0.02 0.02 0.02 0.02 0.01 0.01 0.01 0.02 0.02 0.02 0.03 0.03 0.03 0.02 0.02 0.03 0.03 0.02 0.02 0.02 0.02 0.02 0.02 0.03 0.02 0.02 0.01
0.02 0.04 0.05 0.05 0.03 0.02 0.02 0.02 0.02 0.02 0.02 0.03 0.03 0.03 0.02 0.02 0.02 0.02 0.02 0.02 0.02 0.03 0.02 0.02 0.02 0.02 0.03 0.03 0.02 0.02 0.02 0.01 0.01 0.01 0.01 0.02 0.01 0.01
0.02 0.02 0.03 0.03 0.04 0.04 0.05 0.05 0.05 0.05 0.04 0.04 0.05 0.04 0.04 0.04 0.04 0.04 0.04 0.04 0.04 0.03 0.03 0.02 0.03 0.03 0.04 0.03 0.03 0.03 0.02 0.02 0.01 0.01 0.01 0.01 0.01 0.01
0.03 0.04 0.04 0.03 0.03 0.03 0.03 0.03 0.03 0.03 0.03 0.03 0.04 0.04 0.04 0.04 0.03 0.03 0.04 0.04 0.04 0.03 0.03 0.02 0.03 0.04 0.04 0.03 0.03 0.03 0.03 0.02 0.02 0.02 0.02 0.02 0.02 0.02
0.05 0.04 0.03 0.03 0.02 0.02 0.02 0.02 0.02 0.02 0.02 0.02 0.02 0.03 0.03 0.03 0.03 0.03 0.04 0.04 0.05 0.04 0.04 0.03 0.03 0.03 0.03 0.03 0.02 0.02 0.02 0.02 0.02 0.02 0.02 0.02 0.02 0.02
0.02 0.04 0.03 0.03 0.02 0.02 0.02 0.02 0.02 0.02 0.02 0.01 0.02 0.02 0.02 0.02 0.02 0.02 0.03 0.03 0.03 0.04 0.04 0.03 0.02 0.02 0.02 0.02 0.02 0.02 0.02 0.03 0.03 0.03 0.02 0.02 0.02 0.02
0.02 0.03 0.03 0.03 0.02 0.02 0.02 0.02 0.02 0.02 0.02 0.01 0.02 0.02 0.02 0.02 0.02 0.03 0.03 0.03 0.03 0.03 0.03 0.03 0.03 0.04 0.03 0.02 0.01 0.01 0.02 0.02 0.03 0.03 0.03 0.03 0.03 0.03
0.01 0.02 0.02 0.02 0.02 0.01 0.01 0.02 0.02 0.02 0.02 0.01 0.02 0.02 0.02 0.03 0.03 0.04 0.04 0.03 0.02 0.02 0.02 0.02 0.03 0.04 0.04 0.03 0.02 0.01 0.01 0.02 0.02 0.02 0.03 0.04 0.04 0.03
0.01 0.01 0.02 0.02 0.02 0.01 0.01 0.02 0.02 0.02 0.02 0.02 0.02 0.02 0.02 0.02 0.03 0.04 0.04 0.03 0.02 0.02 0.02 0.03 0.02 0.03 0.04 0.03 0.02 0.02 0.01 0.01 0.01 0.02 0.02 0.03 0.03 0.03
0.01 0.01 0.01 0.02 0.02 0.02 0.02 0.02 0.02 0.01 0.01 0.01 0.02 0.02 0.02 0.02 0.03 0.03 0.03 0.02 0.02 0.02 0.02 0.02 0.02 0.03 0.03 0.03 0.02 0.02 0.01 0.01 0.01 0.01 0.01 0.02 0.02 0.03
0.01 0.01 0.01 0.01 0.02 0.03 0.02 0.02 0.02 0.01 0.01 0.02 0.02 0.02 0.03 0.03 0.02 0.03 0.03 0.02 0.02 0.02 0.02 0.02 0.02 0.03 0.03 0.02 0.02 0.02 0.02 0.02 0.02 0.02 0.02 0.01 0.01 0.02
MSLP
1011.45 1011.16 1010.83 1010.43 1009.95 1009.37 1008.69 1007.96 1007.20 1006.48 1005.83 1005.29 1004.89 1004.62 1004.46 1004.37 1004.32 1004.26 1004.18 1004.05 1003.89 1003.73 1003.60 1003.55 1003.62 1003.82 1004.17 1004.67 1005.30 1006.01 1006.78 1007.57 1008.35 1009.09 1009.80 1010.47 1011.10 1011.70
1011.12 1010.80 1010.46 1010.08 1009.65 1009.14 1008.56 1007.93 1007.27 1006.64 1006.06 1005.57 1005.19 1004.92 1004.75 1004.64 1004.56 1004.49 1004.38 1004.24 1004.08 1003.92 1003.78 1003.72 1003.75 1003.90 1004.20 1004.62 1005.15 1005.77 1006.43 1007.11 1007.79 1008.44 1009.06 1009.64 1010.21 1010.75
1010.88 1010.51 1010.16 1009.79 1009.40 1008.96 1008.47 1007.94 1007.39 1006.85 1006.35 1005.91 1005.56 1005.30 1005.12 1004.99 1004.89 1004.80 1004.70 1004.57 1004.43 1004.29 1004.18 1004.13 1004.17 1004.32 1004.57 1004.93 1005.39 1005.90 1006.45 1007.01 1007.57 1008.09 1008.60 1009.08 1009.54 1010.00
1010.80 1010.39 1010.02 1009.66 1009.29 1008.91 1008.50 1008.06 1007.61 1007.15 1006.72 1006.33 1006.00 1005.74 1005.55 1005.40 1005.28 1005.18 1005.08 1004.98 1004.88 1004.79 1004.73 1004.73 1004.80 1004.96 1005.20 1005.53 1005.91 1006.34 1006.79 1007.24 1007.67 1008.08 1008.46 1008.83 1009.19 1009.56
1010.92 1010.48 1010.09 1009.73 1009.39 1009.05 1008.70 1008.33 1007.95 1007.55 1007.17 1006.81 1006.50 1006.23 1006.01 1005.84 1005.71 1005.59 1005.51 1005.43 1005.37 1005.34 1005.35 1005.41 1005.53 1005.72 1005.97 1006.27 1006.62 1006.98 1007.35 1007.71 1008.04 1008.34 1008.63 1008.90 1009.17 1009.47
1011.21 1010.76 1010.36 1010.00 1009.67 1009.36 1009.05 1008.73 1008.39 1008.03 1007.68 1007.33 1007.01 1006.72 1006.47 1006.27 1006.12 1006.00 1005.91 1005.86 1005.85 1005.87 1005.94 1006.06 1006.23 1006.45 1006.72 1007.02 1007.35 1007.68 1008.00 1008.30 1008.57 1008.81 1009.03 1009.25 1009.46 1009.70
1011.60 1011.16 1010.76 1010.41 1010.09 1009.80 1009.50 1009.20 1008.88 1008.54 1008.18 1007.83 1007.49 1007.17 1006.90 1006.67 1006.48 1006.35 1006.27 1006.23 1006.24 1006.31 1006.42 1006.58 1006.79 1007.04 1007.33 1007.64 1007.96 1008.28 1008.59 1008.87 1009.12 1009.35 1009.56 1009.76 1009.95 1010.17
1012.00 1011.58 1011.20 1010.87 1010.56 1010.27 1009.98 1009.68 1009.35 1009.01 1008.64 1008.27 1007.90 1007.55 1007.25 1006.98 1006.78 1006.63 1006.53 1006.50 1006.52 1006.60 1006.73 1006.91 1007.13 1007.40 1007.70 1008.02 1008.35 1008.67 1008.99 1009.29 1009.57 1009.82 1010.05 1010.28 1010.49 1010.71
1012.32 1011.94 1011.60 1011.28 1010.99 1010.70 1010.41 1010.10 1009.76 1009.39 1009.01 1008.61 1008.22 1007.85 1007.51 1007.23 1007.00 1006.83 1006.72 1006.67 1006.68 1006.75 1006.87 1007.04 1007.25 1007.51 1007.80 1008.12 1008.45 1008.79 1009.14 1009.47 1009.79 1010.10 1010.38 1010.65 1010.91 1011.16
1012.51 1012.19 1011.88 1011.59 1011.31 1011.03 1010.73 1010.41 1010.05 1009.67 1009.27 1008.86 1008.45 1008.06 1007.71 1007.41 1007.16 1006.97 1006.83 1006.76 1006.74 1006.78 1006.86 1007.00 1007.18 1007.40 1007.66 1007.96 1008.29 1008.64 1009.00 1009.37 1009.74 1010.10 1010.44 1010.77 1011.07 1011.36
1012.58 1012.31 1012.04 1011.77 1011.51 1011.23 1010.92 1010.59 1010.23 1009.84 1009.43 1009.01 1008.60 1008.22 1007.86 1007.55 1007.29 1007.09 1006.93 1006.83 1006.77 1006.76 1006.79 1006.87 1006.99 1007.16 1007.38 1007.64 1007.95 1008.29 1008.66 1009.04 1009.44 1009.83 1010.21 1010.57 1010.91 1011.23
1012.58 1012.33 1012.09 1011.84 1011.59 1011.31 1011.01 1010.68 1010.32 1009.93 1009.53 1009.12 1008.72 1008.35 1008.01 1007.71 1007.45 1007.23 1007.06 1006.92 1006.82 1006.76 1006.74 1006.75 1006.81 1006.92 1007.08 1007.29 1007.56 1007.87 1008.21 1008.58 1008.97 1009.36 1009.74 1010.11 1010.45 1010.77
1012.55 1012.32 1012.09 1011.85 1011.60 1011.32 1011.02 1010.70 1010.35 1009.98 1009.60 1009.21 1008.84 1008.50 1008.18 1007.89 1007.64 1007.42 1007.24 1007.08 1006.94 1006.84 1006.76 1006.72 1006.72 1006.77 1006.87 1007.03 1007.24 1007.50 1007.79 1008.12 1008.47 1008.81 1009.16 1009.49 1009.79 1010.08
1012.56 1012.33 1012.08 1011.84 1011.58 1011.30 1011.00 1010.69 1010.36 1010.01 1009.66 1009.32 1008.99 1008.68 1008.39 1008.13 1007.89 1007.68 1007.49 1007.31 1007.15 1007.01 1006.90 1006.81 1006.77 1006.77 1006.83 1006.93 1007.09 1007.29 1007.52 1007.78 1008.05 1008.33 1008.60 1008.85 1009.09 1009.32
1012.62 1012.36 1012.09 1011.83 1011.55 1011.27 1010.99 1010.69 1010.38 1010.07 1009.76 1009.46 1009.17 1008.90 1008.65 1008.41 1008.19 1007.99 1007.79 1007.61 1007.43 1007.28 1007.14 1007.04 1006.97 1006.95 1006.97 1007.04 1007.15 1007.30 1007.47 1007.65 1007.84 1008.02 1008.19 1008.35 1008.50 1008.64
1012.72 1012.42 1012.12 1011.83 1011.55 1011.26 1010.98 1010.71 1010.43 1010.16 1009.90 1009.64 1009.40 1009.16 1008.94 1008.73 1008.52 1008.32 1008.13 1007.94 1007.76 1007.60 1007.46 1007.35 1007.28 1007.26 1007.27 1007.33 1007.41 1007.52 1007.64 1007.76 1007.87 1007.96 1008.03 1008.09 1008.14 1008.20
1012.80 1012.47 1012.15 1011.84 1011.55 1011.27 1011.00 1010.76 1010.52 1010.30 1010.08 1009.87 1009.67 1009.47 1009.27 1009.07 1008.87 1008.66 1008.45 1008.26 1008.07 1007.91 1007.78 1007.68 1007.63 1007.62 1007.65 1007.71 1007.80 1007.89 1007.98 1008.06 1008.11 1008.13 1008.13 1008.10 1008.07 1008.04
1012.83 1012.48 1012.15 1011.83 1011.55 1011.29 1011.06 1010.85 1010.67 1010.49 1010.32 1010.16 1009.99 1009.81 1009.62 1009.42 1009.20 1008.97 1008.75 1008.53 1008.33 1008.16 1008.03 1007.95 1007.92 1007.94 1007.99 1008.09 1008.20 1008.30 1008.39 1008.46 1008.48 1008.47 1008.42 1008.35 1008.26 1008.17
1012.77 1012.42 1012.09 1011.80 1011.54 1011.32 1011.14 1010.99 1010.86 1010.74 1010.63 1010.50 1010.36 1010.19 1009.99 1009.77 1009.52 1009.26 1009.00 1008.74 1008.51 1008.32 1008.19 1008.11 1008.10 1008.14 1008.23 1008.36 1008.50 1008.64 1008.76 1008.84 1008.88 1008.86 1008.81 1008.72 1008.61 1008.49
1012.61 1012.29 1012.00 1011.74 1011.54 1011.38 1011.26 1011.18 1011.12 1011.06 1010.99 1010.90 1010.78 1010.61 1010.39 1010.14 1009.84 1009.53 1009.20 1008.89 1008.62 1008.39 1008.23 1008.15 1008.13 1008.19 1008.31 1008.47 1008.64 1008.82 1008.98 1009.10 1009.17 1009.19 1009.16 1009.09 1008.99 1008.88
1012.39 1012.12 1011.88 1011.69 1011.55 1011.47 1011.43 1011.43 1011.43 1011.44 1011.42 1011.35 1011.24 1011.06 1010.81 1010.51 1010.16 1009.77 1009.38 1009.01 1008.67 1008.40 1008.20 1008.08 1008.05 1008.11 1008.23 1008.41 1008.61 1008.82 1009.02 1009.18 1009.30 1009.36 1009.38 1009.35 1009.30 1009.22
1012.17 1011.95 1011.78 1011.67 1011.61 1011.61 1011.65 1011.72 1011.80 1011.85 1011.87 1011.83 1011.71 1011.51 1011.23 1010.87 1010.46 1010.01 1009.55 1009.10 1008.70 1008.37 1008.12 1007.97 1007.91 1007.94 1008.06 1008.23 1008.44 1008.67 1008.89 1009.08 1009.24 1009.36 1009.43 1009.46 1009.45 1009.42
1011.99 1011.84 1011.74 1011.70 1011.72 1011.80 1011.92 1012.05 1012.18 1012.28 1012.32 1012.28 1012.15 1011.92 1011.60 1011.20 1010.73 1010.22 1009.69 1009.19 1008.73 1008.35 1008.05 1007.86 1007.77 1007.77 1007.86 1008.01 1008.21 1008.43 1008.66 1008.87 1009.05 1009.20 1009.32 1009.40 1009.45 1009.47
Thickness
5679 5677 5676 5678 5677 5676 5676 5675 5672 5670 5672 5673 5674 5676 5675 5674 5671 5670 5670 5667 5665 5664 5662 5661 5660 5659 5659 5658 5659 5659 5659 5660 5660 5661 5661 5661 5662 5662
5674 5673 5671 5673 5672 5672 5672 5672 5670 5668 5667 5671 5671 5673 5671 5671 5668 5666 5666 5664 5662 5660 5658 5656 5655 5655 5655 5655 5655 5655 5655 5655 5656 5656 5656 5656 5657 5657
5672 5670 5668 5667 5667 5668 5668 5667 5666 5665 5662 5665 5667 5667 5665 5663 5663 5662 5662 5660 5659 5656 5654 5653 5652 5651 5651 5651 5651 5651 5651 5651 5651 5651 5651 5651 5651 5652
5669 5668 5666 5666 5663 5663 5663 5663 5662 5661 5659 5657 5660 5661 5659 5659 5657 5656 5658 5657 5656 5653 5650 5649 5648 5647 5647 5647 5646 5646 5646 5646 5646 5646 5646 5646 5645 5646
5667 5665 5664 5662 5660 5660 5658 5658 5658 5658 5657 5655 5655 5656 5656 5656 5654 5653 5654 5651 5651 5650 5646 5645 5643 5642 5642 5641 5641 5641 5641 5642 5641 5640 5640 5639 5639 5640
5663 5662 5661 5659 5657 5656 5655 5654 5653 5652 5652 5652 5652 5652 5651 5651 5650 5649 5648 5648 5647 5647 5644 5642 5639 5638 5637 5636 5636 5636 5635 5635 5634 5634 5634 5634 5633 5633
5659 5658 5657 5654 5652 5650 5651 5650 5649 5648 5648 5647 5647 5646 5646 5645 5645 5645 5643 5642 5641 5641 5640 5639 5637 5636 5634 5632 5631 5630 5629 5628 5628 5627 5627 5627 5627 5627
5654 5654 5654 5652 5649 5645 5643 5642 5641 5642 5642 5641 5642 5640 5639 5640 5639 5638 5637 5636 5634 5635 5633 5633 5633 5632 5632 5631 5628 5626 5624 5622 5622 5621 5620 5620 5620 5621
5651 5649 5651 5651 5647 5646 5642 5638 5636 5634 5633 5634 5635 5634 5634 5634 5632 5631 5629 5628 5627 5628 5627 5626 5627 5627 5627 5626 5623 5621 5619 5617 5616 5615 5614 5614 5614 5614
5647 5646 5645 5644 5643 5640 5640 5638 5636 5634 5631 5629 5629 5629 5628 5626 5625 5624 5622 5622 5622 5622 5621 5620 5622 5621 5623 5621 5618 5616 5614 5612 5611 5610 5609 5608 5608 5609
5643 5642 5640 5639 5633 5631 5633 5632 5631 5629 5627 5624 5622 5622 5620 5618 5617 5618 5619 5618 5618 5619 5618 5616 5616 5616 5616 5616 5614 5611 5610 5608 5606 5605 5604 5603 5603 5602
5639 5637 5632 5630 5627 5625 5627 5626 5625 5624 5624 5623 5620 5618 5617 5615 5612 5611 5613 5612 5613 5612 5613 5611 5611 5610 5610 5611 5611 5609 5606 5604 5602 5600 5599 5598 5597 5597
5636 5634 5631 5623 5620 5618 5617 5619 5618 5617 5619 5619 5618 5618 5616 5614 5612 5609 5607 5606 5606 5606 5607 5604 5604 5604 5603 5604 5604 5604 5603 5601 5599 5597 5595 5594 5592 5591
5628 5628 5624 5616 5614 5612 5612 5611 5609 5608 5614 5615 5614 5613 5612 5611 5608 5606 5602 5600 5598 5598 5597 5596 5596 5595 5594 5594 5595 5596 5596 5595 5594 5594 5593 5590 5588 5587
5621 5616 5613 5609 5608 5608 5606 5605 5603 5607 5609 5609 5609 5608 5607 5605 5602 5599 5597 5594 5593 5592 5591 5589 5588 5588 5587 5586 5586 5586 5586 5587 5587 5587 5587 5587 5586 5585
5614 5610 5606 5604 5604 5604 5604 5603 5604 5604 5604 5603 5604 5603 5602 5599 5597 5595 5593 5591 5589 5589 5587 5584 5581 5580 5579 5578 5578 5578 5578 5578 5579 5579 5579 5580 5580 5580
5608 5608 5608 5607 5606 5605 5605 5604 5602 5601 5598 5598 5598 5597 5595 5593 5592 5591 5588 5586 5584 5583 5582 5580 5577 5574 5573 5572 5571 5572 5571 5571 5571 5571 5570 5572 5574 5574
5600 5604 5604 5604 5603 5602 5601 5600 5598 5595 5593 5592 5591 5589 5588 5587 5586 5584 5582 5580 5578 5577 5577 5576 5573 5570 5568 5568 5564 5564 5565 5565 5565 5564 5564 5565 5567 5568
5596 5600 5600 5599 5599 5598 5596 5594 5592 5589 5587 5585 5583 5583 5582 5581 5579 5578 5577 5575 5573 5572 5571 5570 5568 5565 5563 5563 5563 5557 5557 5557 5556 5557 5558 5558 5560 5562
5596 5597 5596 5595 5593 5591 5590 5588 5586 5584 5581 5579 5577 5576 5575 5574 5573 5572 5570 5568 5567 5566 5566 5565 5562 5560 5558 5556 5557 5554 5548 5549 5549 5549 5550 5552 5553 5552
5593 5592 5591 5589 5588 5585 5583 5581 5579 5577 5575 5573 5571 5569 5569 5568 5567 5567 5565 5561 5560 5561 5560 5559 5557 5552 5552 5551 5550 5550 5547 5542 5541 5541 5542 5543 5546 5547
5589 5587 5585 5583 5581 5579 5576 5575 5573 5571 5569 5567 5565 5563 5563 5562 5561 5560 5560 5558 5557 5556 5556 5554 5552 5550 5548 5546 5545 5545 5544 5540 5537 5534 5533 5533 5537 5540
5583 5581 5579 5576 5575 5573 5571 5569 5567 5565 5563 5561 5559 5557 5556 5555 5555 5555 5553 5551 5551 5550 5549 5548 5548 5545 5544 5542 5540 5539 5538 5537 5536 5535 5533 5530 5528 5528